{"data":{"norad_id":61625,"epoch":"2026-05-25T02:11:19.237632Z","epoch_age_seconds":70628,"freshness":"FRESH","line1":"1 61625U 24191E   26145.09119488 -.00001940  00000+0 -60976-4 0  9992","line2":"2 61625  43.0033  82.7998 0001360 251.3942 108.6762 15.27579952 89227","mean_motion":15.27579952,"eccentricity":0.000136,"inclination_deg":43.0033,"raan_deg":82.7998,"arg_perigee_deg":251.3942,"mean_anomaly_deg":108.6762,"bstar":-6.0976e-5,"rev_number":8922,"period_min":94.266751675725,"perigee_km":482.11611844032,"apogee_km":483.98236109753,"semimajor_km":6861.1862397689,"source":"CELESTRAK","updated_at":"2026-05-25T13:38:19.407115Z"}}